星链-5062 (STARLINK-5062 )

导读 | 豆包AI

STARLINK-5062是美国太空探索技术公司(SpaceX)星链(Starlink)项目中的卫星,于2023年2月17日发射。星链项目旨在构建全球卫星互联网星座,为全球偏远地区等提供低延迟高速互联网服务。该卫星入轨后,将和其他星链卫星组网,进一步完善星链星座的全球覆盖能力,增强星座的服务稳定性。

基本信息
目录编号:
55637
目录名称:
STARLINK-5062
国际标识:
2023-021K
轨道中心:
EARTH
卫星名称:
星链-5062
卫星全名:
星链-5062 (STARLINK-5062 )
卫星状态:
在轨 (已飞行1122 天)
发射日期:
2023-02-17 UTC
国别 :
美国 (US)
星等 :
--
轨道信息
数据来源 国际轨道数据
星历时间: 2026-03-14T23:55:14+0800
1天前
查看轨道信息
半长轴: 6950.185km
偏心率: 0.0003196
轨道倾角: 70.001°
近地点辐角 270.938°
升交点赤经 172.029°
平近点角 89.141°
近地点: 569.826km
远地点: 574.27km
周期: 96.107分钟
每日圈数: 14.983328
详细信息
固有亮度:
5
最大亮度:
2.5
卫星平台:
Starlink v1.5
覆盖范围:
全球
运营商:
太空探索技术公司
运营商所在国:
美国
制造商(研发单位):
太空探索技术公司
制造商所在国:
美国
使用方式:
暂无
卫星简介
星链(Starlink)计划是由太空探索技术公司(SpaceX)提出的一个巨型低轨卫星互联网星座项目,计划在2019年至2024年间在太空搭建由约1.2万颗卫星组成的“星链”网络,其中1584颗将部署在地球上空550千米处的近地轨道,并从2020年开始工作。该卫星仍在工作。
2D轨道图
3D轨道图
轨道高度分析图
轨道倾角分析图
轨道综合分析图
查看轨道综合分析图